www.pogodaiklimat.ru

Погода и климат >> Архив погоды >> Индонезия >> Саумлаки


ПОГОДА в Саумлаки

  • Прогноз погоды в Саумлаки
  • Монитор погоды в Саумлаки

АРХИВ ПОГОДЫ в Саумлаки

Время (UTC), дата Ветер
(напр.,м/с)
 
Видим.   Явления Облачность Т
(С)
Тd
(С)
f
(%)
Тe
(С)
Тes
(С)
Комфортность P
(гПа)
Po
(гПа)
Тmin
(С)
Tmax
(С)
R
(мм)
R24
(мм)
S
(см)
18 13.07 С 4 6000 м слаб. дождь 10/6 480 м
[Cu Sc Ac As]
+23.0 +21.0 89 +31 +31 очень
душно
1013.4 1010.5 15
21 13.07 В 5 6000 м в посл. час дождь 10/8 480 м
[Cu Sc Ac As]
+23.0 +20.4 85 +30 +30 очень
душно
1013.9 1011.0 1
00 14.07 В 3 4000 м слаб. дождь 10/6 480 м
[Cu Sc As op]
+23.2 +21.8 92 +31 +32 очень
душно
1014.5 1011.7 +22.5 1
03 14.07 В 3 10 км {дождь} 10/6 500 м
[Cu Sc As op]
+23.6 +22.2 92 +31 +32 очень
душно
1012.6 1009.7 3
06 14.07 ЮВ 4 12 км {дождь} 9/4 600 м
[Cu Sc As op Cs]
+26.8 +21.0 71 +34 +36 очень
душно
1011.1 1008.3 3
09 14.07 ЮВ 4 9000 м 9/4 480 м
[Cu Sc As op Cs]
+26.1 +21.1 74 +33 +33 очень
душно
1012.2 1009.3 0.0
12 14.07 ЮВ 4 10 км 9/4 480 м
[Cu Sc Ac trans Cs]
+25.0 +21.0 78 +31 +31 очень
душно
1014.4 1011.5 +28.8
15 14.07 В 6 8000 м 8/4 480 м
[Cu Sc Ac trans]
+25.0 +20.7 77 +31 +31 очень
душно
1013.8 1011.0
18 14.07 В 4 8000 м 8/4 480 м
[Cu Sc Ac trans]
+25.4 +20.8 76 +32 +32 очень
душно
1013.0 1010.1
21 14.07 ЮВ 4 8000 м в посл. час дождь 9/6 480 м
[Cu Sc Ac As]
+25.1 +20.6 76 +31 +31 очень
душно
1013.2 1010.3 0.0
00 15.07 ЮВ 4 10 км {дождь} 10/5 500 м
[Cu Sc Ac As]
+25.4 +21.8 80 +33 +33 очень
душно
1014.0 1011.1 +22.5 0.2
03 15.07 ЮВ 6 6000 м слаб. дождь 10/5 480 м
[Cu Sc As op]
+24.7 +21.9 84 +32 +32 очень
душно
1012.7 1009.8 1
06 15.07 ЮВ 6 12 км {дождь} 9/4 600 м
[Cu med, cong Ac As]
+25.9 +19.3 67 +31 +32 очень
душно
1010.3 1007.5 2
09 15.07 В 5 12 км 9/5 480 м
[Cu Sc Ac As]
+25.0 +20.4 76 +31 +31 очень
душно
1010.8 1007.9
12 15.07 В 5 12 км 9/5 480 м
[Cu Sc As op]
+25.2 +21.4 79 +32 +32 очень
душно
1013.1 1010.2 +28.8
15 15.07 В 6 10 км в посл. час дождь 10/5 480 м
[Cu Sc As op]
+25.1 +21.6 81 +32 +32 очень
душно
1012.9 1010.0 0.0
18 15.07 В 6 10 км {дождь} 9/5 480 м
[Cu Sc Ac As]
+25.0 +21.9 83 +32 +32 очень
душно
1012.1 1009.2 0.0
21 15.07 ЮВ 4 6000 м в посл. час дождь 10/6 480 м
[Cu Sc Ac As]
+24.5 +22.1 86 +32 +32 очень
душно
1012.2 1009.3 1
00 16.07 ЮВ 4 7000 м слаб. дождь 10/6 480 м
[Cu Sc Ac As]
+24.8 +21.0 79 +31 +32 очень
душно
1013.3 1010.4 +22.0 0.8
03 16.07 В 6 7000 м слаб. дождь 10/6 480 м
[Cu Sc Ac As]
+24.5 +20.7 79 +30 +31 очень
душно
1012.6 1009.7 2
06 16.07 ЮВ 5 8000 м 10/6 480 м
[Cu Sc Ac As]
+25.4 +22.8 86 +34 +34 очень
душно
1010.5 1007.6 0.8
09 16.07 ЮВ 4 8000 м в посл. час дождь 10/6 480 м
[Cu Sc Ac As]
+24.2 +21.8 86 +31 +31 очень
душно
1011.1 1008.2 2
12 16.07 ЮВ 4 10 км 6/5 480 м
[Cu Sc As op]
+24.6 +21.8 84 +31 +31 очень
душно
1013.2 1010.3 +28.8 2
15 16.07 ЮВ 4 10 км 9/6 480 м
[Cu Sc Ac As]
+24.4 +22.2 88 +32 +32 очень
душно
1013.0 1010.1
18 16.07 В 5 8000 м 9/6 480 м
[Cu Sc Ac As]
+24.1 +21.6 86 +31 +31 очень
душно
1011.8 1008.9
21 16.07 ЮВ 6 8000 м 9/6 480 м
[Cu Sc Ac As]
+24.0 +22.2 90 +31 +31 очень
душно
1011.7 1008.8
00 17.07 ЮВ 4 12 км 9/6 480 м
[Cu Sc Ac As]
+25.5 +22.0 81 +33 +34 очень
душно
1013.2 1010.3 +23.3 5
03 17.07 ЮВ 5 12 км 9/6 480 м
[Cu Sc Ac As]
+26.6 +22.1 76 +34 +36 очень
душно
1011.7 1008.7
06 17.07 ЮВ 5 12 км 10/6 480 м
[Cu Sc As op]
+26.6 +21.6 74 +34 +34 очень
душно
1010.0 1007.1
09 17.07 ЮВ 4 12 км 5/4 600 м
[Cu med, cong Ac As]
+25.3 +21.7 80 +32 +32 очень
душно
1010.1 1007.3
12 17.07 В 4 8000 м 5/4 600 м
[Cu med, cong Ac As]
+25.1 +21.3 79 +32 +32 очень
душно
1012.6 1009.7 +28.6
15 17.07 В 5 8000 м 5/4 600 м
[Cu med, cong Ac As]
+25.3 +21.2 78 +32 +32 очень
душно
1012.3 1009.4
18 17.07 В 5 8000 м 9/6 480 м
[Cu Sc Ac As]
+25.3 +21.4 79 1011.6
21 17.07 В 4 10 км 9/5 480 м
[Cu Sc Ac As]
+25.2 +21.9 82 +32 +32 очень
душно
1012.0 1009.1
00 18.07 В 5 15 км 9/4 500 м
[Cu Sc As op Cs]
+26.0 +21.5 76 +33 +34 очень
душно
1013.5 1010.7 +23.5
06 18.07 В 5 13 км 9/5 600 м
[Cu med, cong Ac trans]
+27.3 +21.4 70 +35 +36 очень
душно
1010.8 1007.8
09 18.07 В 3 12 км 8/6 480 м
[Cu Sc Ac As]
+25.6 +21.4 78 +33 +33 очень
душно
1010.8 1007.9
12 18.07 В 4 12 км 8/5 480 м
[Cu Sc Ac As]
+25.2 +21.6 80 +32 +32 очень
душно
1012.2 1009.3 +28.6
15 18.07 В 5 12 км 5/4 600 м
[Cu med, cong Ac As]
+25.0 +22.1 84 +32 +32 очень
душно
1012.1 1009.2
18 18.07 В 3 12 км 8/5 480 м
[Cu Sc Ac As]
+25.4 +22.3 83 +33 +33 очень
душно
1011.5 1008.6
21 18.07 В 5 12 км 6/5 600 м
[Cu med, cong Ac trans]
+25.4 +22.4 83 +33 +33 очень
душно
1011.8 1008.9
00 19.07 В 5 12 км 8/5 480 м
[Cu Sc Ac trans]
+26.7 +22.4 77 +35 +36 очень
душно
1013.2 1010.4 +25.2
03 19.07 В 5 12 км 8/6 480 м
[Cu Sc As op]
+27.3 +22.6 76 +36 +39 очень
душно
1012.5 1009.7
06 19.07 В 6 12 км 8/5 480 м
[Cu Sc Ac trans]
+27.1 +23.7 82 +37 +38 очень
душно
1011.1 1008.3
09 19.07 В 5 12 км 9/8 500 м
[Cu Sc As op]
+26.0 +22.6 82 +34 +34 очень
душно
1011.4 1008.5
12 19.07 В 3 10 км 8/6 600 м
[Cu med, cong As op]
+25.2 +22.5 85 +33 +33 очень
душно
1012.8 1009.9 +28.5
15 19.07 В 3 10 км 5/5 600 м
[Cu med, cong]
+25.3 +22.2 83 +33 +33 очень
душно
1013.1 1010.2
18 19.07 В 4 10 км 6/5 600 м
[Cu med, cong As op]
+25.0 +22.2 84 +32 +32 очень
душно
1011.6 1008.7
21 19.07 ЮВ 4 10 км 5/5 600 м
[Cu med, cong]
+24.8 +22.0 84 +32 +32 очень
душно
1012.2 1009.3
00 20.07 ЮВ 5 12 км 5/4 600 м
[Cu med, cong Ac trans]
+28.8 +22.7 70 +38 +40 очень
душно
1013.1 1010.2
03 20.07 ЮВ 5 12 км 5/4 600 м
[Cu med, cong Ac trans]
+28.8 +22.7 70 +38 +44 очень
душно
1013.1 1010.2
06 20.07 В 6 12 км 5/5 600 м
[Cu med, cong Ac trans]
+27.1 +23.7 82 +37 +39 очень
душно
1011.1 1008.3
09 20.07 ЮВ 4 12 км осадки на расстоянии 5/5 480 м
[Cu Sc Ac trans]
+27.6 +22.6 74 +36 +36 очень
душно
1011.7 1008.5
12 20.07 В 5 12 км 3/3 600 м
[Cu med, cong]
+25.2 +22.1 83 +33 +33 очень
душно
1012.5 1009.6 +28.8
15 20.07 В 4 15 км 3/3 600 м
[Cu med, cong]
+26.2 +24.1 88 +36 +36 очень
душно
1012.5 1009.6

 

Местоположение метеостанции Саумлаки (Индонезия): широта -7.98 долгота 131.30 высота над уровнем моря 24 м.

В архиве по умолчанию представлена погода в Саумлаки за последнюю неделю. Архивные данные за месяц целиком и за предыдущие месяцы, начиная с января 2011 года, Вы можете получить, выбрав интересующий диапазон дат из раскрывающегося списка и нажав кнопку "Ввод!".


*Определитесь, кто Вы:
робот инопланетянин человек

Внимание! Время в таблицах - всемирное. Для получения местного времени необходимо прибавить поправку, которая равна 9 ч.

Смотрите также архив погоды в соседних городах и на ближайших метеорологических станциях:

Погода в Туале (Индонезия) (302 км)
Погода в Кейп-Доне (Северная территория, Австралия) (375 км)
Погода на Острове Маклер (Северная территория, Австралия) (388 км)
Погода в Гарден-Пойнте (Северная территория, Австралия) (392 км)
Погода в Неира (Индонезия) (414 км)
Погода на Острове Батерст (Северная территория, Австралия) (446 км)
Погода в Уорруви (Северная территория, Австралия) (468 км)
Погода в Гесере (Индонезия) (468 км)
Погода в Пойнт Стьюарт (Северная территория, Австралия) (477 км)
Погода в Дарвине (Северная территория, Австралия) (495 км)

Пояснения к столбцам:

Ветер - указаны скорость ветра в м/с - средняя за 10 мин, порывы в срок и между сроками (в фигурных скобках) и направление, откуда дует ветер: С - северный, СВ - северо-восточный, В - восточный, ЮВ - юго-восточный, Ю - южный, ЮЗ - юго-западный, З - западный, СЗ - северо-западный.
Видимость - горизонтальная дальность видимости в метрах или километрах. При видимости от 1 до 10 км при отсутствии осадков обычно наблюдается дымка, при ухудшении видимости до 1 км и менее - туман. В сухую погоду видимость может ухудшаться дымом, пылью или мглою.
Явления - указаны атмосферные явления, наблюдавшиеся в срок или в последний час перед сроком; фигурными скобками обозначены явления, наблюдавшиеся между сроками (за 1-3 часа до срока); квадратными скобками обозначены град или гололедные отложения с указанием их диаметра в мм.
Облачность - указаны через наклонную черту общая и нижняя облачность в баллах и высота нижней границы облаков в метрах; квадратными скобками обозначены формы облаков: Ci - перистые, Cs - перисто-слоистые, Cc - перисто-кучевые, Ac - высококучевые, As - высокослоистые, Sc - слоисто-кучевые, Ns - слоисто-дождевые, Cu - кучевые, Cb - кучево-дождевые. Подробнее классификацию облаков см. в Атласе облаков (PDF).
T - Температура воздуха - температура, измеренная на высоте 2 м над землей.
Td - Температура точки росы - температура, при понижении до которой содержащийся в воздухе водяной пар достигнет насыщения.
f - Относительная влажность воздуха - влажноcть воздуха, измеренная на высоте 2 м над землей.
Te - Эффективная температура - температура, которую ощущает одетый по сезону человек в тени. Характеристика душности погоды. При расчете учитывается влияние влажности воздуха и скорости ветра на теплоощущения человека.
Tes - Эффективная температура на солнце - температура, которую ощущает человек, с поправкой на солнечный нагрев. Характеристика знойности погоды. Зависит от высоты солнца над горизонтом, облачности и скорости ветра. Ночью, в пасмурную погоду, а также при ветре 12 м/с и более поправка равна нулю.
P - Атмосферное давление - приведенное к уровню моря атмосферное давление.
Po - Атмосферное давление - измеренное на уровне метеостанции атмосферное давление.
Tmin - Минимальная температура - минимум температуры воздуха на высоте 2 м над землей.
Tmax - Максимальная температура - максимум температуры воздуха на высоте 2 м над землей.
R - Количество осадков - Количество выпавших осадков за период времени, мм. При наведении курсора мыши на число - период времени, за который выпало указанное количество осадков.
R24 - Количество осадков - Количество выпавших осадков за 24 часа, мм.
S - Снежный покров - Высота снежного покрова, см. При наведении курсора мыши на число - состояние снежного покрова и степень покрытия местности в баллах.